Time,TemperatureF,DewpointF,PressureIn,WindDirection,WindDirectionDegrees,WindSpeedMPH,WindSpeedGustMPH,Humidity,HourlyPrecipIn,Conditions,Clouds,dailyrainin,SoftwareType,DateUTC
2013-02-09 00:04:00,25.3,3.9,23.71,SSW,203,0.0,0.0,39,0.00,,---,0.00,VWS V14.01,2013-02-09 07:04:00,
2013-02-09 00:09:00,25.5,4.0,23.71,South,170,0.0,0.0,39,0.00,,---,0.00,VWS V14.01,2013-02-09 07:09:00,
2013-02-09 00:15:00,25.3,4.4,23.71,West,268,0.0,0.0,40,0.00,,---,0.00,VWS V14.01,2013-02-09 07:15:00,
2013-02-09 00:21:00,25.5,5.1,23.71,WNW,287,0.0,4.0,41,0.00,,---,0.00,VWS V14.01,2013-02-09 07:21:00,
2013-02-09 00:27:00,25.7,5.3,23.71,WNW,287,0.0,0.0,41,0.00,,---,0.00,VWS V14.01,2013-02-09 07:27:00,
2013-02-09 00:33:00,25.5,5.6,23.71,SW,232,0.0,0.0,42,0.00,,---,0.00,VWS V14.01,2013-02-09 07:33:00,
2013-02-09 00:39:00,25.3,5.5,23.71,SSW,209,3.1,5.4,42,0.00,,---,0.00,VWS V14.01,2013-02-09 07:39:00,
2013-02-09 00:45:00,25.3,5.5,23.71,SSE,149,3.6,5.8,42,0.00,,---,0.00,VWS V14.01,2013-02-09 07:45:00,
2013-02-09 00:51:00,26.6,7.1,23.71,SSW,207,3.6,4.0,43,0.00,,---,0.00,VWS V14.01,2013-02-09 07:51:00,
2013-02-09 00:57:00,27.5,7.4,23.68,WNW,296,3.1,3.6,42,0.00,,---,0.00,VWS V14.01,2013-02-09 07:57:00,
2013-02-09 01:08:00,28.2,8.1,23.68,WNW,293,2.2,2.2,42,0.00,,---,0.00,VWS V14.01,2013-02-09 08:08:00,
2013-02-09 01:13:00,29.5,8.7,23.71,WNW,292,0.0,0.0,41,0.00,,---,0.00,VWS V14.01,2013-02-09 08:13:00,
2013-02-09 01:18:00,29.8,8.5,23.71,WNW,292,0.0,0.0,40,0.00,,---,0.00,VWS V14.01,2013-02-09 08:18:00,
2013-02-09 01:23:00,29.8,8.5,23.71,WNW,292,0.0,0.0,40,0.00,,---,0.00,VWS V14.01,2013-02-09 08:23:00,
2013-02-09 01:28:00,29.5,7.6,23.68,WNW,292,0.0,0.0,39,0.00,,---,0.00,VWS V14.01,2013-02-09 08:28:00,
2013-02-09 01:33:00,28.9,7.7,23.68,SW,217,0.0,0.0,40,0.00,,---,0.00,VWS V14.01,2013-02-09 08:33:00,
2013-02-09 01:39:00,28.6,6.8,23.68,SW,218,0.0,0.0,39,0.00,,---,0.00,VWS V14.01,2013-02-09 08:39:00,
2013-02-09 01:44:00,28.2,7.0,23.68,South,177,0.0,4.5,40,0.00,,---,0.00,VWS V14.01,2013-02-09 08:44:00,
2013-02-09 01:50:00,28.0,7.4,23.68,SSW,213,3.1,3.1,41,0.00,,---,0.00,VWS V14.01,2013-02-09 08:50:00,
2013-02-09 01:56:00,28.2,7.6,23.68,SSW,212,4.5,4.5,41,0.00,,---,0.00,VWS V14.01,2013-02-09 08:56:00,
2013-02-09 02:02:00,28.2,7.6,23.68,South,184,0.0,0.0,41,0.00,,---,0.00,VWS V14.01,2013-02-09 09:02:00,
2013-02-09 02:07:00,28.2,7.6,23.68,WNW,282,0.0,2.7,41,0.00,,---,0.00,VWS V14.01,2013-02-09 09:07:00,
2013-02-09 02:13:00,28.0,7.4,23.68,East,82,2.7,3.1,41,0.00,,---,0.00,VWS V14.01,2013-02-09 09:13:00,
2013-02-09 02:18:00,29.3,8.0,23.68,ESE,107,0.0,3.1,40,0.00,,---,0.00,VWS V14.01,2013-02-09 09:18:00,
2013-02-09 02:24:00,30.7,8.1,23.68,NE,56,0.0,0.0,38,0.00,,---,0.00,VWS V14.01,2013-02-09 09:24:00,
2013-02-09 02:30:00,32.4,8.4,23.68,NNE,20,0.0,4.0,36,0.00,,---,0.00,VWS V14.01,2013-02-09 09:30:00,
2013-02-09 02:35:00,33.1,8.4,23.68,WNW,291,0.0,0.0,35,0.00,,---,0.00,VWS V14.01,2013-02-09 09:35:00,
2013-02-09 02:41:00,31.6,6.5,23.68,WNW,295,0.0,4.9,34,0.00,,---,0.00,VWS V14.01,2013-02-09 09:41:00,
2013-02-09 02:46:00,30.7,6.3,23.68,SSW,208,3.1,3.1,35,0.00,,---,0.00,VWS V14.01,2013-02-09 09:46:00,
2013-02-09 02:51:00,29.8,5.5,23.68,West,266,3.1,3.1,35,0.00,,---,0.00,VWS V14.01,2013-02-09 09:51:00,
2013-02-09 02:57:00,29.1,4.9,23.68,SW,214,0.0,0.0,35,0.00,,---,0.00,VWS V14.01,2013-02-09 09:57:00,
2013-02-09 03:03:00,28.6,5.0,23.68,West,263,3.6,4.0,36,0.00,,---,0.00,VWS V14.01,2013-02-09 10:03:00,
2013-02-09 03:08:00,28.4,4.9,23.68,WSW,252,0.0,0.0,36,0.00,,---,0.00,VWS V14.01,2013-02-09 10:08:00,
2013-02-09 03:13:00,28.2,4.7,23.68,WSW,253,2.7,3.6,36,0.00,,---,0.00,VWS V14.01,2013-02-09 10:13:00,
2013-02-09 03:19:00,27.9,5.0,23.68,West,274,2.7,3.1,37,0.00,,---,0.00,VWS V14.01,2013-02-09 10:19:00,
2013-02-09 03:24:00,27.9,5.6,23.68,West,274,0.0,0.0,38,0.00,,---,0.00,VWS V14.01,2013-02-09 10:24:00,
2013-02-09 03:29:00,27.7,4.8,23.68,WNW,283,4.5,5.8,37,0.00,,---,0.00,VWS V14.01,2013-02-09 10:29:00,
2013-02-09 03:34:00,28.0,5.7,23.68,East,86,3.1,4.0,38,0.00,,---,0.00,VWS V14.01,2013-02-09 10:34:00,
2013-02-09 03:40:00,30.0,6.9,23.68,WSW,244,2.7,4.0,37,0.00,,---,0.00,VWS V14.01,2013-02-09 10:40:00,
2013-02-09 03:46:00,31.1,7.3,23.68,North,1,2.7,8.3,36,0.00,,---,0.00,VWS V14.01,2013-02-09 10:46:00,
2013-02-09 03:52:00,32.5,8.6,23.68,North,357,5.8,6.3,36,0.00,,---,0.00,VWS V14.01,2013-02-09 10:52:00,
2013-02-09 03:57:00,33.4,8.7,23.68,SE,133,3.1,4.0,35,0.00,,---,0.00,VWS V14.01,2013-02-09 10:57:00,
2013-02-09 04:03:00,34.0,9.2,23.68,NW,314,3.6,8.1,35,0.00,,---,0.00,VWS V14.01,2013-02-09 11:03:00,
2013-02-09 04:08:00,34.2,8.7,23.68,SSE,150,5.4,6.3,34,0.00,,---,0.00,VWS V14.01,2013-02-09 11:08:00,
2013-02-09 04:13:00,34.5,9.1,23.68,East,84,5.8,8.1,34,0.00,,---,0.00,VWS V14.01,2013-02-09 11:13:00,
2013-02-09 04:19:00,34.5,9.1,23.68,SSE,165,8.7,11.0,34,0.00,,---,0.00,VWS V14.01,2013-02-09 11:19:00,
2013-02-09 04:25:00,34.2,8.1,23.68,NE,46,3.6,5.4,33,0.00,,---,0.00,VWS V14.01,2013-02-09 11:25:00,
2013-02-09 04:30:00,33.8,7.8,23.68,ENE,66,3.6,4.5,33,0.00,,---,0.00,VWS V14.01,2013-02-09 11:30:00,
2013-02-09 04:36:00,32.9,7.0,23.68,East,79,8.7,8.7,33,0.00,,---,0.00,VWS V14.01,2013-02-09 11:36:00,
2013-02-09 04:42:00,32.2,6.3,23.68,SSE,156,2.7,4.0,33,0.00,,---,0.00,VWS V14.01,2013-02-09 11:42:00,
2013-02-09 04:47:00,32.2,6.3,23.68,East,90,4.0,5.4,33,0.00,,---,0.00,VWS V14.01,2013-02-09 11:47:00,
2013-02-09 04:52:00,32.2,6.3,23.68,North,357,5.8,5.8,33,0.00,,---,0.00,VWS V14.01,2013-02-09 11:52:00,
2013-02-09 04:58:00,31.8,6.7,23.68,NNE,27,5.8,6.3,34,0.00,,---,0.00,VWS V14.01,2013-02-09 11:58:00,
2013-02-09 05:03:00,31.1,6.0,23.68,NE,44,3.1,5.8,34,0.00,,---,0.00,VWS V14.01,2013-02-09 12:03:00,
2013-02-09 05:08:00,30.2,5.2,23.68,North,11,2.7,4.0,34,0.00,,---,0.00,VWS V14.01,2013-02-09 12:08:00,
2013-02-09 05:14:00,29.3,4.4,23.71,NNE,27,0.0,0.0,34,0.00,,---,0.00,VWS V14.01,2013-02-09 12:14:00,
2013-02-09 05:20:00,28.8,3.9,23.71,South,173,0.0,0.0,34,0.00,,---,0.00,VWS V14.01,2013-02-09 12:20:00,
2013-02-09 05:26:00,28.2,4.1,23.71,South,173,0.0,0.0,35,0.00,,---,0.00,VWS V14.01,2013-02-09 12:26:00,
2013-02-09 05:31:00,27.7,3.6,23.71,South,173,0.0,0.0,35,0.00,,---,0.00,VWS V14.01,2013-02-09 12:31:00,
2013-02-09 05:36:00,27.3,3.3,23.71,South,173,0.0,0.0,35,0.00,,---,0.00,VWS V14.01,2013-02-09 12:36:00,
2013-02-09 05:42:00,26.8,2.8,23.71,South,173,0.0,0.0,35,0.00,,---,0.00,VWS V14.01,2013-02-09 12:42:00,
2013-02-09 05:48:00,26.2,2.9,23.71,South,173,0.0,0.0,36,0.00,,---,0.00,VWS V14.01,2013-02-09 12:48:00,
2013-02-09 05:54:00,25.9,3.2,23.71,South,173,0.0,0.0,37,0.00,,---,0.00,VWS V14.01,2013-02-09 12:54:00,
2013-02-09 05:59:00,25.5,3.5,23.71,South,173,0.0,0.0,38,0.00,,---,0.00,VWS V14.01,2013-02-09 12:59:00,
2013-02-09 06:05:00,25.3,3.3,23.71,South,173,0.0,0.0,38,0.00,,---,0.00,VWS V14.01,2013-02-09 13:05:00,
2013-02-09 06:11:00,25.0,3.5,23.71,South,173,0.0,0.0,39,0.00,,---,0.00,VWS V14.01,2013-02-09 13:11:00,
2013-02-09 06:16:00,24.8,3.4,23.71,South,173,0.0,0.0,39,0.00,,---,0.00,VWS V14.01,2013-02-09 13:16:00,
2013-02-09 06:21:00,24.4,3.0,23.71,South,173,0.0,0.0,39,0.00,,---,0.00,VWS V14.01,2013-02-09 13:21:00,
2013-02-09 06:27:00,24.3,3.4,23.71,South,173,0.0,0.0,40,0.00,,---,0.00,VWS V14.01,2013-02-09 13:27:00,
2013-02-09 06:33:00,23.9,3.6,23.71,South,173,0.0,0.0,41,0.00,,---,0.00,VWS V14.01,2013-02-09 13:33:00,
2013-02-09 06:39:00,23.5,3.8,23.71,South,173,0.0,0.0,42,0.00,,---,0.00,VWS V14.01,2013-02-09 13:39:00,
2013-02-09 06:45:00,23.0,3.8,23.71,South,173,0.0,0.0,43,0.00,,---,0.00,VWS V14.01,2013-02-09 13:45:00,
2013-02-09 06:51:00,22.8,3.7,23.71,WNW,290,0.0,2.7,43,0.00,,---,0.00,VWS V14.01,2013-02-09 13:51:00,
2013-02-09 06:56:00,22.6,3.5,23.71,SW,217,0.0,0.0,43,0.00,,---,0.00,VWS V14.01,2013-02-09 13:56:00,
2013-02-09 07:02:00,22.6,3.5,23.71,SW,217,0.0,0.0,43,0.00,,---,0.00,VWS V14.01,2013-02-09 14:02:00,
2013-02-09 07:08:00,22.5,3.4,23.71,SW,217,0.0,0.0,43,0.00,,---,0.00,VWS V14.01,2013-02-09 14:08:00,
2013-02-09 07:14:00,22.3,3.7,23.71,SW,217,0.0,0.0,44,0.00,,---,0.00,VWS V14.01,2013-02-09 14:14:00,
2013-02-09 07:19:00,22.3,3.7,23.71,SW,217,0.0,0.0,44,0.00,,---,0.00,VWS V14.01,2013-02-09 14:19:00,
2013-02-09 07:25:00,22.1,3.5,23.71,SW,217,0.0,0.0,44,0.00,,---,0.00,VWS V14.01,2013-02-09 14:25:00,
2013-02-09 07:31:00,21.9,3.4,23.71,SW,217,0.0,0.0,44,0.00,,---,0.00,VWS V14.01,2013-02-09 14:31:00,
2013-02-09 07:37:00,21.7,3.2,23.71,SW,217,0.0,0.0,44,0.00,,---,0.00,VWS V14.01,2013-02-09 14:37:00,
2013-02-09 07:43:00,21.9,3.8,23.71,SW,217,0.0,0.0,45,0.00,,---,0.00,VWS V14.01,2013-02-09 14:43:00,
2013-02-09 07:49:00,21.9,3.8,23.71,SW,217,0.0,0.0,45,0.00,,---,0.00,VWS V14.01,2013-02-09 14:49:00,
2013-02-09 07:55:00,21.9,3.8,23.68,SW,217,0.0,0.0,45,0.00,,---,0.00,VWS V14.01,2013-02-09 14:55:00,
2013-02-09 08:00:00,21.7,3.7,23.68,WSW,255,0.0,0.0,45,0.00,,---,0.00,VWS V14.01,2013-02-09 15:00:00,
2013-02-09 08:05:00,21.9,4.3,23.68,WSW,254,0.0,0.0,46,0.00,,---,0.00,VWS V14.01,2013-02-09 15:05:00,
2013-02-09 08:11:00,21.9,4.3,23.68,WSW,254,0.0,0.0,46,0.00,,---,0.00,VWS V14.01,2013-02-09 15:11:00,
2013-02-09 08:17:00,21.9,4.3,23.68,WSW,254,0.0,0.0,46,0.00,,---,0.00,VWS V14.01,2013-02-09 15:17:00,
2013-02-09 08:23:00,21.9,4.8,23.68,WSW,254,0.0,0.0,47,0.00,,---,0.00,VWS V14.01,2013-02-09 15:23:00,
2013-02-09 08:29:00,22.3,5.1,23.68,WSW,255,0.0,0.0,47,0.00,,---,0.00,VWS V14.01,2013-02-09 15:29:00,
2013-02-09 08:35:00,22.3,5.1,23.68,WSW,254,0.0,0.0,47,0.00,,---,0.00,VWS V14.01,2013-02-09 15:35:00,
2013-02-09 08:41:00,22.3,5.1,23.68,WSW,254,0.0,0.0,47,0.00,,---,0.00,VWS V14.01,2013-02-09 15:41:00,
2013-02-09 08:46:00,22.3,5.1,23.68,WSW,255,0.0,0.0,47,0.00,,---,0.00,VWS V14.01,2013-02-09 15:46:00,
2013-02-09 08:52:00,22.5,5.3,23.68,WSW,254,0.0,0.0,47,0.00,,---,0.00,VWS V14.01,2013-02-09 15:52:00,
2013-02-09 08:58:00,22.8,5.6,23.68,WSW,254,0.0,0.0,47,0.00,,---,0.00,VWS V14.01,2013-02-09 15:58:00,
2013-02-09 09:04:00,23.0,6.2,23.68,WSW,255,0.0,0.0,48,0.00,,---,0.00,VWS V14.01,2013-02-09 16:04:00,
2013-02-09 09:09:00,23.7,6.9,23.65,SSE,155,0.0,2.2,48,0.00,,---,0.00,VWS V14.01,2013-02-09 16:09:00,
2013-02-09 09:15:00,25.2,8.7,23.65,SSW,194,0.0,2.7,49,0.00,,---,0.00,VWS V14.01,2013-02-09 16:15:00,
2013-02-09 09:20:00,27.3,10.2,23.65,NW,310,8.7,10.5,48,0.00,,---,0.00,VWS V14.01,2013-02-09 16:20:00,
2013-02-09 09:25:00,29.8,10.1,23.65,North,2,6.3,6.3,43,0.00,,---,0.00,VWS V14.01,2013-02-09 16:25:00,
2013-02-09 09:31:00,30.7,10.4,23.65,ESE,107,3.1,3.6,42,0.00,,---,0.00,VWS V14.01,2013-02-09 16:31:00,
2013-02-09 09:37:00,32.0,11.0,23.65,NNE,24,6.3,6.3,41,0.00,,---,0.00,VWS V14.01,2013-02-09 16:37:00,
2013-02-09 09:43:00,32.2,10.6,23.65,NNE,23,4.9,4.9,40,0.00,,---,0.00,VWS V14.01,2013-02-09 16:43:00,
2013-02-09 09:49:00,32.5,10.9,23.65,NNE,29,3.6,4.0,40,0.00,,---,0.00,VWS V14.01,2013-02-09 16:49:00,
2013-02-09 09:54:00,32.7,11.1,23.65,North,9,5.4,6.3,40,0.00,,---,0.00,VWS V14.01,2013-02-09 16:54:00,
2013-02-09 10:00:00,32.9,10.7,23.65,NE,56,4.0,5.8,39,0.00,,---,0.00,VWS V14.01,2013-02-09 17:00:00,
2013-02-09 10:06:00,32.5,10.4,23.65,NNE,23,4.0,6.3,39,0.00,,---,0.00,VWS V14.01,2013-02-09 17:06:00,
2013-02-09 10:12:00,32.5,10.4,23.65,NE,42,4.0,5.8,39,0.00,,---,0.00,VWS V14.01,2013-02-09 17:12:00,
2013-02-09 10:18:00,32.9,10.7,23.65,East,90,4.0,4.9,39,0.00,,---,0.00,VWS V14.01,2013-02-09 17:18:00,
2013-02-09 10:24:00,33.6,11.3,23.62,NE,56,2.2,4.9,39,0.00,,---,0.00,VWS V14.01,2013-02-09 17:24:00,
2013-02-09 10:30:00,34.3,11.4,23.62,NE,38,3.1,3.6,38,0.00,,---,0.00,VWS V14.01,2013-02-09 17:30:00,
2013-02-09 10:36:00,34.3,10.8,23.62,NNE,28,6.3,8.1,37,0.00,,---,0.00,VWS V14.01,2013-02-09 17:36:00,
2013-02-09 10:42:00,34.2,10.6,23.62,North,3,3.6,4.0,37,0.00,,---,0.00,VWS V14.01,2013-02-09 17:42:00,
2013-02-09 10:48:00,34.0,10.5,23.62,NE,44,6.3,7.6,37,0.00,,---,0.00,VWS V14.01,2013-02-09 17:48:00,
2013-02-09 10:54:00,34.0,10.5,23.62,NE,52,2.7,7.6,37,0.00,,---,0.00,VWS V14.01,2013-02-09 17:54:00,
2013-02-09 11:00:00,34.0,10.5,23.62,NE,51,4.9,4.9,37,0.00,,---,0.00,VWS V14.01,2013-02-09 18:00:00,
2013-02-09 11:06:00,34.0,10.5,23.62,NNE,23,5.8,8.1,37,0.00,,---,0.00,VWS V14.01,2013-02-09 18:06:00,
2013-02-09 11:12:00,34.2,10.6,23.62,NNE,22,5.4,7.6,37,0.00,,---,0.00,VWS V14.01,2013-02-09 18:12:00,
2013-02-09 11:18:00,34.9,10.6,23.62,NNE,14,4.0,6.3,36,0.00,,---,0.00,VWS V14.01,2013-02-09 18:18:00,
2013-02-09 11:23:00,35.2,11.0,23.62,NE,47,3.1,3.1,36,0.00,,---,0.00,VWS V14.01,2013-02-09 18:23:00,
2013-02-09 11:29:00,35.1,10.8,23.59,North,357,2.7,5.8,36,0.00,,---,0.00,VWS V14.01,2013-02-09 18:29:00,
2013-02-09 11:35:00,35.1,10.8,23.59,ENE,71,8.7,8.7,36,0.00,,---,0.00,VWS V14.01,2013-02-09 18:35:00,
2013-02-09 11:40:00,35.2,11.0,23.59,NE,43,4.9,6.3,36,0.00,,---,0.00,VWS V14.01,2013-02-09 18:40:00,
2013-02-09 11:46:00,35.1,10.2,23.59,ENE,74,5.4,6.3,35,0.00,,---,0.00,VWS V14.01,2013-02-09 18:46:00,
2013-02-09 11:52:00,34.7,9.9,23.59,ENE,69,4.0,8.3,35,0.00,,---,0.00,VWS V14.01,2013-02-09 18:52:00,
2013-02-09 11:58:00,34.3,10.2,23.59,NNE,20,3.6,3.6,36,0.00,,---,0.00,VWS V14.01,2013-02-09 18:58:00,
2013-02-09 12:04:00,34.5,10.3,23.59,NE,50,3.1,4.0,36,0.00,,---,0.00,VWS V14.01,2013-02-09 19:04:00,
2013-02-09 12:10:00,34.9,10.0,23.59,NNE,13,5.4,8.3,35,0.00,,---,0.00,VWS V14.01,2013-02-09 19:10:00,
2013-02-09 12:16:00,34.9,10.0,23.59,North,1,2.2,4.0,35,0.00,,---,0.00,VWS V14.01,2013-02-09 19:16:00,
2013-02-09 12:21:00,35.1,10.2,23.59,North,7,3.6,4.0,35,0.00,,---,0.00,VWS V14.01,2013-02-09 19:21:00,
2013-02-09 12:27:00,34.7,9.9,23.59,NW,311,5.8,5.8,35,0.00,,---,0.00,VWS V14.01,2013-02-09 19:27:00,
2013-02-09 12:33:00,34.3,9.5,23.59,NNE,31,0.0,2.2,35,0.00,,---,0.00,VWS V14.01,2013-02-09 19:33:00,
2013-02-09 12:39:00,34.2,10.0,23.59,NW,318,2.7,3.6,36,0.00,,---,0.00,VWS V14.01,2013-02-09 19:39:00,
2013-02-09 12:45:00,33.8,11.5,23.59,South,170,4.0,6.3,39,0.00,,---,0.00,VWS V14.01,2013-02-09 19:45:00,
2013-02-09 12:51:00,32.7,16.6,23.59,SW,215,3.1,4.9,51,0.00,,---,0.00,VWS V14.01,2013-02-09 19:51:00,
2013-02-09 12:57:00,31.3,15.7,23.59,SSW,198,0.0,2.2,52,0.00,,---,0.00,VWS V14.01,2013-02-09 19:57:00,
2013-02-09 13:02:00,30.4,14.9,23.59,SSW,198,0.0,0.0,52,0.00,,---,0.00,VWS V14.01,2013-02-09 20:02:00,
2013-02-09 13:07:00,30.0,15.0,23.59,SSW,198,0.0,0.0,53,0.00,,---,0.00,VWS V14.01,2013-02-09 20:07:00,
2013-02-09 13:13:00,29.5,14.9,23.56,SSW,198,0.0,0.0,54,0.00,,---,0.00,VWS V14.01,2013-02-09 20:13:00,
2013-02-09 13:18:00,29.5,15.3,23.56,East,85,0.0,0.0,55,0.00,,---,0.00,VWS V14.01,2013-02-09 20:18:00,
2013-02-09 13:24:00,29.5,15.7,23.56,NE,55,0.0,0.0,56,0.00,,---,0.00,VWS V14.01,2013-02-09 20:24:00,
2013-02-09 13:29:00,29.5,16.5,23.59,NE,50,2.7,3.1,58,0.00,,---,0.00,VWS V14.01,2013-02-09 20:29:00,
2013-02-09 13:35:00,28.9,16.8,23.59,East,85,0.0,0.0,60,0.00,,---,0.00,VWS V14.01,2013-02-09 20:35:00,
2013-02-09 13:41:00,28.6,17.6,23.59,NE,42,0.0,0.0,63,0.00,,---,0.00,VWS V14.01,2013-02-09 20:41:00,
2013-02-09 13:47:00,28.6,18.0,23.59,NNE,14,0.0,0.0,64,0.00,,---,0.00,VWS V14.01,2013-02-09 20:47:00,
2013-02-09 13:53:00,28.8,18.5,23.59,NE,42,2.7,4.9,65,0.00,,---,0.00,VWS V14.01,2013-02-09 20:53:00,
2013-02-09 13:59:00,28.8,18.9,23.56,North,0,0.0,0.0,66,0.00,,---,0.00,VWS V14.01,2013-02-09 20:59:00,
2013-02-09 14:04:00,28.8,19.2,23.56,North,357,0.0,3.1,67,0.00,,---,0.00,VWS V14.01,2013-02-09 21:04:00,
2013-02-09 14:09:00,28.9,19.7,23.56,NNE,31,3.1,5.4,68,0.00,,---,0.00,VWS V14.01,2013-02-09 21:09:00,
2013-02-09 14:15:00,28.9,19.7,23.56,NNE,13,2.2,2.2,68,0.00,,---,0.00,VWS V14.01,2013-02-09 21:15:00,
2013-02-09 14:20:00,29.1,19.9,23.56,ENE,64,5.8,5.8,68,0.00,,---,0.00,VWS V14.01,2013-02-09 21:20:00,
2013-02-09 14:26:00,28.9,19.7,23.56,North,357,5.4,5.4,68,0.00,,---,0.00,VWS V14.01,2013-02-09 21:26:00,
2013-02-09 14:32:00,28.8,19.5,23.56,North,357,4.0,6.3,68,0.00,,---,0.00,VWS V14.01,2013-02-09 21:32:00,
2013-02-09 14:37:00,28.8,19.9,23.56,SE,127,4.0,5.8,69,0.00,,---,0.00,VWS V14.01,2013-02-09 21:37:00,
2013-02-09 14:43:00,28.8,20.2,23.56,East,91,4.9,5.8,70,0.00,,---,0.00,VWS V14.01,2013-02-09 21:43:00,
2013-02-09 14:49:00,29.1,20.9,23.56,East,82,5.8,5.8,71,0.00,,---,0.00,VWS V14.01,2013-02-09 21:49:00,
2013-02-09 14:55:00,29.5,20.6,23.56,East,84,6.3,6.3,69,0.00,,---,0.00,VWS V14.01,2013-02-09 21:55:00,
2013-02-09 15:00:00,29.5,20.2,23.56,ENE,73,4.9,5.4,68,0.00,,---,0.00,VWS V14.01,2013-02-09 22:00:00,
2013-02-09 15:06:00,29.7,20.4,23.56,SSW,195,4.9,4.9,68,0.00,,---,0.00,VWS V14.01,2013-02-09 22:06:00,
2013-02-09 15:12:00,30.2,20.9,23.56,North,9,3.6,3.6,68,0.00,,---,0.00,VWS V14.01,2013-02-09 22:12:00,
2013-02-09 15:18:00,30.4,20.4,23.56,NNE,20,3.6,3.6,66,0.00,,---,0.00,VWS V14.01,2013-02-09 22:18:00,
2013-02-09 15:24:00,30.4,19.7,23.56,NNE,25,2.2,5.8,64,0.00,,---,0.00,VWS V14.01,2013-02-09 22:24:00,
2013-02-09 15:30:00,30.4,19.7,23.56,NNE,15,3.1,3.6,64,0.00,,---,0.00,VWS V14.01,2013-02-09 22:30:00,
2013-02-09 15:35:00,30.2,19.5,23.56,North,6,3.1,3.6,64,0.00,,---,0.00,VWS V14.01,2013-02-09 22:35:00,
2013-02-09 15:41:00,30.0,19.3,23.56,North,3,2.7,3.6,64,0.00,,---,0.00,VWS V14.01,2013-02-09 22:41:00,
2013-02-09 15:47:00,30.2,19.5,23.56,NNE,29,0.0,3.6,64,0.00,,---,0.00,VWS V14.01,2013-02-09 22:47:00,
2013-02-09 15:52:00,30.2,19.5,23.56,NNE,29,0.0,0.0,64,0.00,,---,0.00,VWS V14.01,2013-02-09 22:52:00,
2013-02-09 15:57:00,30.2,19.9,23.56,NNE,31,2.2,3.1,65,0.00,,---,0.00,VWS V14.01,2013-02-09 22:57:00,
2013-02-09 16:03:00,30.0,19.3,23.56,NNE,27,3.6,3.6,64,0.00,,---,0.00,VWS V14.01,2013-02-09 23:03:00,
2013-02-09 16:08:00,29.8,19.2,23.56,NE,45,3.1,3.6,64,0.00,,---,0.00,VWS V14.01,2013-02-09 23:08:00,
2013-02-09 16:14:00,29.7,19.0,23.56,NNE,19,0.0,3.6,64,0.00,,---,0.00,VWS V14.01,2013-02-09 23:14:00,
2013-02-09 16:20:00,29.5,19.2,23.56,NE,46,3.6,3.6,65,0.00,,---,0.00,VWS V14.01,2013-02-09 23:20:00,
2013-02-09 16:26:00,29.5,19.2,23.56,NNE,19,2.2,3.1,65,0.00,,---,0.00,VWS V14.01,2013-02-09 23:26:00,
2013-02-09 16:32:00,29.5,19.5,23.56,ENE,59,0.0,0.0,66,0.00,,---,0.00,VWS V14.01,2013-02-09 23:32:00,
2013-02-09 16:38:00,29.5,19.5,23.56,East,80,2.7,2.7,66,0.00,,---,0.00,VWS V14.01,2013-02-09 23:38:00,
2013-02-09 16:44:00,29.5,19.5,23.56,North,5,2.2,2.2,66,0.00,,---,0.00,VWS V14.01,2013-02-09 23:44:00,
2013-02-09 16:50:00,29.7,20.1,23.56,NNE,29,0.0,0.0,67,0.00,,---,0.00,VWS V14.01,2013-02-09 23:50:00,
2013-02-09 16:56:00,29.7,20.1,23.56,NNE,29,0.0,0.0,67,0.00,,---,0.00,VWS V14.01,2013-02-09 23:56:00,
2013-02-09 17:01:00,29.7,20.1,23.56,NE,37,0.0,0.0,67,0.00,,---,0.00,VWS V14.01,2013-02-10 00:01:00,
2013-02-09 17:07:00,29.5,19.9,23.56,North,353,0.0,2.7,67,0.00,,---,0.00,VWS V14.01,2013-02-10 00:07:00,
2013-02-09 17:12:00,29.3,20.1,23.56,North,5,2.2,3.1,68,0.00,,---,0.00,VWS V14.01,2013-02-10 00:12:00,
2013-02-09 17:18:00,29.3,20.4,23.56,North,5,0.0,0.0,69,0.00,,---,0.00,VWS V14.01,2013-02-10 00:18:00,
2013-02-09 17:25:00,29.3,20.7,23.56,North,5,0.0,0.0,70,0.00,,---,0.00,VWS V14.01,2013-02-10 00:25:00,
2013-02-09 17:30:00,29.3,20.7,23.56,North,5,0.0,0.0,70,0.00,,---,0.00,VWS V14.01,2013-02-10 00:30:00,
2013-02-09 17:35:00,29.3,20.7,23.56,NE,46,2.2,3.6,70,0.00,,---,0.00,VWS V14.01,2013-02-10 00:35:00,
2013-02-09 17:41:00,29.3,21.1,23.56,North,357,6.3,6.3,71,0.00,,---,0.00,VWS V14.01,2013-02-10 00:41:00,
2013-02-09 17:47:00,29.3,21.1,23.56,ENE,73,2.7,3.6,71,0.00,,---,0.00,VWS V14.01,2013-02-10 00:47:00,
2013-02-09 17:52:00,29.3,21.1,23.56,ENE,61,3.1,3.6,71,0.00,,---,0.00,VWS V14.01,2013-02-10 00:52:00,
2013-02-09 17:58:00,29.1,20.9,23.56,North,8,2.7,2.7,71,0.00,,---,0.00,VWS V14.01,2013-02-10 00:58:00,
2013-02-09 18:03:00,29.3,21.4,23.56,NE,35,3.1,3.6,72,0.00,,---,0.00,VWS V14.01,2013-02-10 01:03:00,
2013-02-09 18:09:00,29.3,21.4,23.56,North,0,5.4,5.4,72,0.00,,---,0.00,VWS V14.01,2013-02-10 01:09:00,
2013-02-09 18:15:00,29.1,21.2,23.56,North,2,3.1,4.0,72,0.00,,---,0.00,VWS V14.01,2013-02-10 01:15:00,
2013-02-09 18:21:00,28.8,20.9,23.56,NNE,23,2.2,3.1,72,0.00,,---,0.00,VWS V14.01,2013-02-10 01:21:00,
2013-02-09 18:27:00,28.8,21.2,23.56,SE,131,3.6,5.8,73,0.00,,---,0.00,VWS V14.01,2013-02-10 01:27:00,
2013-02-09 18:33:00,28.6,21.4,23.56,West,265,6.3,6.3,74,0.00,,---,0.00,VWS V14.01,2013-02-10 01:33:00,
2013-02-09 18:38:00,28.4,21.8,23.56,SSE,147,4.0,5.8,76,0.00,,---,0.00,VWS V14.01,2013-02-10 01:38:00,
2013-02-09 18:43:00,28.2,22.0,23.56,ENE,73,5.4,12.8,77,0.00,,---,0.00,VWS V14.01,2013-02-10 01:43:00,
2013-02-09 18:49:00,27.9,21.9,23.56,South,187,3.6,11.0,78,0.00,,---,0.00,VWS V14.01,2013-02-10 01:49:00,
2013-02-09 18:55:00,27.9,21.9,23.56,SW,220,3.6,7.2,78,0.00,,---,0.00,VWS V14.01,2013-02-10 01:55:00,
2013-02-09 19:01:00,27.9,21.6,23.56,South,169,3.1,3.6,77,0.00,,---,0.00,VWS V14.01,2013-02-10 02:01:00,
2013-02-09 19:07:00,27.9,21.6,23.56,East,95,4.9,4.9,77,0.00,,---,0.00,VWS V14.01,2013-02-10 02:07:00,
2013-02-09 19:12:00,27.9,21.6,23.56,NNE,27,3.6,4.9,77,0.00,,---,0.00,VWS V14.01,2013-02-10 02:12:00,
2013-02-09 19:18:00,27.7,21.4,23.56,ENE,71,4.0,4.0,77,0.00,,---,0.00,VWS V14.01,2013-02-10 02:18:00,
2013-02-09 19:24:00,27.7,21.4,23.56,SE,124,3.6,5.8,77,0.00,,---,0.00,VWS V14.01,2013-02-10 02:24:00,
2013-02-09 19:30:00,27.7,21.4,23.56,NNE,23,0.0,2.7,77,0.00,,---,0.00,VWS V14.01,2013-02-10 02:30:00,
2013-02-09 19:36:00,27.7,21.4,23.56,NNW,338,2.2,5.8,77,0.00,,---,0.00,VWS V14.01,2013-02-10 02:36:00,
2013-02-09 19:41:00,27.7,21.1,23.56,ENE,73,2.7,5.4,76,0.00,,---,0.00,VWS V14.01,2013-02-10 02:41:00,
2013-02-09 19:47:00,27.5,21.2,23.56,NNE,13,3.1,5.8,77,0.00,,---,0.00,VWS V14.01,2013-02-10 02:47:00,
2013-02-09 19:53:00,27.3,21.1,23.56,SSW,210,0.0,2.7,77,0.00,,---,0.00,VWS V14.01,2013-02-10 02:53:00,
2013-02-09 19:59:00,27.3,21.4,23.56,SE,125,2.7,3.1,78,0.00,,---,0.00,VWS V14.01,2013-02-10 02:59:00,
2013-02-09 20:05:00,27.1,21.5,23.56,ENE,70,5.8,5.8,79,0.00,,---,0.00,VWS V14.01,2013-02-10 03:05:00,
2013-02-09 20:10:00,27.0,21.3,23.56,NNE,13,0.0,3.6,79,0.00,,---,0.00,VWS V14.01,2013-02-10 03:10:00,
2013-02-09 20:15:00,27.0,21.6,23.56,North,353,3.6,5.4,80,0.00,,---,0.00,VWS V14.01,2013-02-10 03:15:00,
2013-02-09 20:21:00,26.6,21.3,23.56,SE,132,5.8,8.1,80,0.00,,---,0.00,VWS V14.01,2013-02-10 03:21:00,
2013-02-09 20:27:00,26.4,21.4,23.56,ESE,123,5.4,6.3,81,0.00,,---,0.00,VWS V14.01,2013-02-10 03:27:00,
2013-02-09 20:33:00,26.4,21.4,23.56,East,84,5.8,5.8,81,0.00,,---,0.00,VWS V14.01,2013-02-10 03:33:00,
2013-02-09 20:38:00,26.4,21.7,23.56,ESE,116,3.6,5.4,82,0.00,,---,0.00,VWS V14.01,2013-02-10 03:38:00,
2013-02-09 20:44:00,26.4,22.0,23.56,ENE,67,5.4,6.3,83,0.00,,---,0.00,VWS V14.01,2013-02-10 03:44:00,
2013-02-09 20:50:00,26.2,21.8,23.56,NNE,32,3.6,5.4,83,0.00,,---,0.00,VWS V14.01,2013-02-10 03:50:00,
2013-02-09 20:55:00,26.1,21.6,23.56,North,6,3.6,5.4,83,0.00,,---,0.00,VWS V14.01,2013-02-10 03:55:00,
2013-02-09 21:01:00,26.1,21.6,23.56,NE,50,4.5,5.8,83,0.00,,---,0.00,VWS V14.01,2013-02-10 04:01:00,
2013-02-09 21:06:00,25.9,21.7,23.56,NNE,20,4.0,4.0,84,0.00,,---,0.00,VWS V14.01,2013-02-10 04:06:00,
2013-02-09 21:12:00,25.9,21.7,23.56,NE,36,3.1,3.1,84,0.00,,---,0.00,VWS V14.01,2013-02-10 04:12:00,
2013-02-09 21:18:00,25.9,22.0,23.56,NE,46,4.9,5.4,85,0.00,,---,0.00,VWS V14.01,2013-02-10 04:18:00,
2013-02-09 21:24:00,25.9,22.0,23.56,NNE,27,3.6,4.9,85,0.00,,---,0.00,VWS V14.01,2013-02-10 04:24:00,
2013-02-09 21:30:00,25.9,22.0,23.56,NNE,17,2.2,3.1,85,0.00,,---,0.00,VWS V14.01,2013-02-10 04:30:00,
2013-02-09 21:35:00,25.9,22.3,23.56,NNE,20,2.7,3.1,86,0.00,,---,0.00,VWS V14.01,2013-02-10 04:35:00,
2013-02-09 21:41:00,25.9,22.3,23.56,NNE,28,2.2,3.6,86,0.00,,---,0.00,VWS V14.01,2013-02-10 04:41:00,
2013-02-09 21:47:00,25.7,22.1,23.56,NNE,30,4.0,4.0,86,0.00,,---,0.00,VWS V14.01,2013-02-10 04:47:00,
2013-02-09 21:53:00,25.7,22.1,23.56,NE,49,2.7,2.7,86,0.00,,---,0.00,VWS V14.01,2013-02-10 04:53:00,
2013-02-09 21:59:00,25.5,21.9,23.56,NNE,28,2.2,3.6,86,0.00,,---,0.00,VWS V14.01,2013-02-10 04:59:00,
2013-02-09 22:00:00,25.5,21.9,23.56,NE,52,5.4,5.4,86,0.00,,---,0.00,VWS V14.01,2013-02-10 05:00:00,
2013-02-09 22:01:00,25.5,21.9,23.56,NNE,29,2.7,5.4,86,0.00,,---,0.00,VWS V14.01,2013-02-10 05:01:00,
2013-02-09 22:07:00,25.3,21.8,23.56,NE,34,2.7,4.0,86,0.00,,---,0.00,VWS V14.01,2013-02-10 05:07:00,
2013-02-09 22:12:00,25.3,21.8,23.56,NNE,27,4.0,4.9,86,0.00,,---,0.00,VWS V14.01,2013-02-10 05:12:00,
2013-02-09 22:13:00,25.2,21.6,23.56,NNE,24,3.6,4.0,86,0.00,,---,0.00,VWS V14.01,2013-02-10 05:13:00,
2013-02-09 22:19:00,25.2,21.6,23.56,NNE,16,6.3,6.3,86,0.00,,---,0.00,VWS V14.01,2013-02-10 05:19:00,
2013-02-09 22:25:00,25.2,21.6,23.59,NE,34,0.0,4.0,86,0.00,,---,0.00,VWS V14.01,2013-02-10 05:25:00,
2013-02-09 22:31:00,25.2,21.6,23.59,NE,38,4.0,4.0,86,0.00,,---,0.00,VWS V14.01,2013-02-10 05:31:00,
2013-02-09 22:37:00,25.2,21.6,23.59,NE,49,2.7,3.6,86,0.00,,---,0.00,VWS V14.01,2013-02-10 05:37:00,
2013-02-09 22:43:00,25.2,21.6,23.59,North,3,3.1,3.1,86,0.00,,---,0.00,VWS V14.01,2013-02-10 05:43:00,
2013-02-09 22:49:00,25.2,21.8,23.59,ENE,65,3.1,3.6,87,0.00,,---,0.00,VWS V14.01,2013-02-10 05:49:00,
2013-02-09 22:55:00,25.2,21.8,23.59,North,353,0.0,3.6,87,0.00,,---,0.00,VWS V14.01,2013-02-10 05:55:00,
2013-02-09 23:01:00,25.2,21.8,23.59,North,0,0.0,0.0,87,0.00,,---,0.00,VWS V14.01,2013-02-10 06:01:00,
2013-02-09 23:07:00,25.2,21.8,23.59,NE,52,0.0,0.0,87,0.00,,---,0.00,VWS V14.01,2013-02-10 06:07:00,
2013-02-09 23:12:00,25.2,21.8,23.59,NNE,26,0.0,0.0,87,0.00,,---,0.00,VWS V14.01,2013-02-10 06:12:00,
2013-02-09 23:18:00,25.2,21.6,23.59,NNE,26,0.0,0.0,86,0.00,,---,0.00,VWS V14.01,2013-02-10 06:18:00,
2013-02-09 23:24:00,25.0,21.4,23.59,NNE,26,0.0,0.0,86,0.00,,---,0.00,VWS V14.01,2013-02-10 06:24:00,
2013-02-09 23:30:00,24.6,21.0,23.59,NNE,26,0.0,0.0,86,0.00,,---,0.00,VWS V14.01,2013-02-10 06:30:00,
2013-02-09 23:35:00,24.4,20.9,23.59,NNE,26,0.0,0.0,86,0.00,,---,0.00,VWS V14.01,2013-02-10 06:35:00,
2013-02-09 23:41:00,24.3,20.7,23.59,NNE,26,0.0,0.0,86,0.00,,---,0.00,VWS V14.01,2013-02-10 06:41:00,
2013-02-09 23:46:00,23.9,20.3,23.59,NNE,26,0.0,0.0,86,0.00,,---,0.00,VWS V14.01,2013-02-10 06:46:00,
2013-02-09 23:52:00,23.5,20.0,23.59,NNE,26,0.0,0.0,86,0.00,,---,0.00,VWS V14.01,2013-02-10 06:52:00,
2013-02-09 23:57:00,23.4,19.5,23.59,NNE,26,0.0,0.0,85,0.00,,---,0.00,VWS V14.01,2013-02-10 06:57:00,